This is the latest recevied weather packets stored in our database for station/object KE5AKC. If no packets are shown the sender has not sent any weather packets the latest 10 day(s).
| Time | Temp. | Humidity | Pressure | Rain* | Wind** | Luminosity | Snow |
|---|---|---|---|---|---|---|---|
| 1777557122 | 25° C | 86% | 1010.7 hPa | 0 mm | - | 162 W/m² | - |
| 1777556817 | 25° C | 86% | 1010.3 hPa | 0 mm | - | 211 W/m² | - |
| 1777556514 | 25° C | 85% | 1010 hPa | 0 mm | - | 202 W/m² | - |
| 1777556213 | 25° C | 88% | 1010 hPa | 0 mm | - | 239 W/m² | - |
| 1777555910 | 24.44° C | 90% | 1009.7 hPa | 0 mm | - | 212 W/m² | - |
| 1777555605 | 23.89° C | 91% | 1009.7 hPa | 0 mm | - | 214 W/m² | - |
| 1777555302 | 23.89° C | 92% | 1009.3 hPa | 0 mm | - | 189 W/m² | - |
| 1777554998 | 23.33° C | 93% | 1009.7 hPa | 0 mm | - | 127 W/m² | - |
| 1777554696 | 23.33° C | 93% | 1009.3 hPa | 0 mm | - | 91 W/m² | - |
| 1777554393 | 22.78° C | 94% | 1009.3 hPa | 0 mm | - | 104 W/m² | - |
| 1777554089 | 22.78° C | 94% | 1009.7 hPa | 0 mm | - | 116 W/m² | - |
| 1777553786 | 22.78° C | 94% | 1010.3 hPa | 0 mm | - | 70 W/m² | - |
| 1777553483 | 22.78° C | 94% | 1010.3 hPa | 0 mm | - | 43 W/m² | - |
| 1777553179 | 22.78° C | 94% | 1010.3 hPa | 0 mm | - | 37 W/m² | - |
| 1777552875 | 22.78° C | 94% | 1010 hPa | 0 mm | - | 40 W/m² | - |
| 1777552569 | 22.78° C | 94% | 1010 hPa | 0 mm | - | 46 W/m² | - |
| 1777552266 | 22.78° C | 94% | 1010 hPa | 0 mm | - | 25 W/m² | - |
| 1777551963 | 22.78° C | 94% | 1010 hPa | 0 mm | - | 33 W/m² | - |
| 1777551660 | 22.78° C | 94% | 1010 hPa | 0 mm | - | 18 W/m² | - |
| 1777551358 | 22.78° C | 95% | 1010.3 hPa | 0 mm | - | 16 W/m² | - |
| 1777551054 | 22.78° C | 94% | 1010.3 hPa | 0 mm | - | 13 W/m² | - |
| 1777550751 | 22.78° C | 94% | 1010.3 hPa | 0 mm | - | 8 W/m² | - |
| 1777550447 | 22.78° C | 94% | 1010.3 hPa | 0 mm | - | 6 W/m² | - |
| 1777550144 | 22.78° C | 94% | 1010 hPa | 0 mm | - | 4 W/m² | - |
| 1777549840 | 22.78° C | 94% | 1010 hPa | 0 mm | - | 2 W/m² | - |
* Rain latest hour (hover to see other rain measurements)
** Current wind speed in m/s (hover to see current wind gust speed)